Location: B?ezina
(49.8085°N, 13.6013°E)
Time: 00:30:47
(UTC+00:00)

ARIANE 5 R/B - Pass Details

Date: 19 May 2025
Orbit: 615 x 647 km, 98.0° (Epoch: 20 June)

Event Time Altitude Azimuth Distance (km) Brightness Sun altitude
Exits shadow 21:23:52 27° 121° (ESE) 1,199 3.6 -16.9°
Maximum altitude 21:25:43 43° 69° (ENE) 883 3.3 -17.0°
Drops below altitude 10° 21:29:51 10° 358° (N) 2,008 6.3 -17.3°
Sets 21:32:08 0° 352° (N) 2,924 7.6 -17.4°
